Location: Wien
(48.2082°N, 16.3738°E)
Time: 23:03:20
(UTC+01:00)

Envisat - Pass Details

Date: 28 October 2019
Orbit: 764 x 766 km, 98.1° (Epoch: 13 November)

Event Time Altitude Azimuth Distance (km) Brightness Sun altitude
Rises 05:35:29 0° 28° (NNE) 3,242 6.5 -10.1°
Reaches altitude 10° 05:38:36 10° 48° (NE) 2,310 6.1 -9.6°
Maximum altitude 05:41:55 17° 89° (E) 1,849 6.3 -9.1°
Drops below altitude 10° 05:45:14 10° 130° (SE) 2,298 6.5 -8.5°
Sets 05:48:18 0° 150° (SSE) 3,218 6.9 -8.0°
